Track STARLINK-1794 now! 10-day predictions STARLINK-1794 is classified as:
1 46695U 20073AB 21025.25001157 -.00013010 00000-0 -85577-3 0 9995 2 46695 53.0560 8.8586 0000695 3.9207 41.3424 15.06414709 15648